Location: Petruro
(41.0333°N, 14.7833°E)
Time: 08:53:07
(UTC+00:00)

NOSS 3-2 (A) - Pass Details

Date: 20 June 2021
Orbit: 774 x 1433 km, 63.4° (Epoch: 17 July)

Event Time Altitude Azimuth Distance (km) Brightness Sun altitude
Rises 02:24:04 0° 325° (NW) 3,997 6.8 -10.4°
Reaches altitude 10° 02:26:38 10° 327° (NNW) 3,121 6.3 -10.0°
Maximum altitude 02:34:20 81° 55° (NE) 1,336 4.3 -9.0°
Drops below altitude 10° 02:43:01 10° 143° (SE) 3,492 6.4 -7.7°
Sets 02:46:02 0° 144° (SE) 4,494 6.9 -7.3°
